[[{"header":{"parameterUnit":"m.s-1","parameterCategory":1,"la1":30.2991,"la2":30.254,"lo1":-89.0895,"lo2":-89.0444,"dy":0.0017,"dx":0.0017,"nx":28,"ny":28,"refTime":"2024-04-09T21:00:00:Z","depth":0,"parameterNumber":2,"parameterNumberName":"U-component_of_WINDS"},"data":[0,0,0,0,0,0,0,0,0,0,0,0,0,0,0,0,0,0,0,0,0,0,0,0,0,0,0,0,0,0,0,0,0,0,0,0,0,0,0,0,0,0,0,0,0,0,0,0,0,0,0,0,0,0,0,0,0,0,-8.6415,-8.6416,0,-8.6489,-8.6489,-8.649,-8.6418,-8.6415,-8.6412,-8.641,-8.6479,-8.6483,-8.6487,0,0,0,0,0,0,0,0,0,0,0,0,0,-8.6208,-8.6212,-8.6415,-8.6416,-8.6417,-8.6488,-8.6489,-8.649,-8.6419,-8.6415,-8.6412,-8.6408,-8.6477,-8.6483,-8.6488,0,0,0,0,0,0,0,0,0,0,0,0,0,-8.6291,-8.6213,-8.6415,-8.639,-8.6388,-8.6488,-8.6489,-8.6491,-8.6419,-8.6415,-8.6411,-8.6407,-8.6475,-8.6482,-8.6489,-8.6615,0,0,-8.6509,-8.6512,0,0,0,0,0,0,0,0,-8.6286,-8.6299,-8.6393,-8.6392,-8.639,-8.644,-8.6442,-8.6532,-8.642,-8.6407,-8.641,-8.6405,-8.6469,-8.6476,-8.6499,-8.6618,-8.6621,-8.651,-8.6514,-8.6517,-8.6519,0,0,0,0,0,0,0,-8.6281,-8.6295,-8.6444,-8.6394,-8.6393,-8.6373,-8.638,-8.6458,-8.6461,-8.6408,-8.6403,-8.6413,-8.6467,-8.6492,-8.65,-8.6622,-8.651,-8.6516,-8.652,-8.6522,-8.6848,-8.6853,0,0,0,0,0,0,-8.6278,-8.6291,-8.6442,-8.6446,-8.6327,-8.6381,-8.6389,-8.6428,-8.646,-8.6461,-8.6417,-8.641,-8.6483,-8.6492,-8.6502,-8.665,-8.6517,-8.6523,-8.6527,-8.6844,-8.6849,-8.6854,0,0,0,0,0,0,-8.6274,-8.6293,-8.6439,-8.6367,-8.6384,-8.6389,-8.6434,-8.6432,-8.6457,-8.6466,-8.6466,-8.6442,-8.648,-8.6492,-8.6588,-8.6651,-8.6526,-8.6532,-8.6838,-8.6845,-8.6852,-8.6948,0,0,0,0,0,0,-8.6269,-8.6292,-8.634,-8.6369,-8.6389,-8.6525,-8.6438,-8.6436,-8.6469,-8.6461,-8.649,-8.6491,-8.6478,-8.6578,-8.6594,-8.6658,-8.6537,-8.6832,-8.6841,-8.685,-8.6939,-8.6958,-8.6974,0,0,0,0,0,-8.6261,-8.6363,-8.6343,-8.6362,-8.645,-8.6528,-8.6539,-8.6524,-8.6475,-8.6523,-8.653,-8.649,-8.6643,-8.6588,-8.6606,-8.6673,-8.6828,-8.6839,-8.6849,-8.6932,-8.6954,-8.6973,0,0,0,0,0,0,-8.6339,-8.6367,-8.6344,-8.6459,-8.6493,-8.6516,-8.6576,-8.6548,-8.6594,-8.6584,-8.6562,-8.6569,-8.6669,-8.6681,-8.662,-8.6797,-8.6727,-8.6742,-8.6784,-8.6806,-8.6823,-8.6815,-8.6543,0,0,0,0,0,-8.6371,-8.6434,-8.6454,-8.6553,-8.6571,-8.6572,-8.6605,-8.6591,-8.6623,-8.6636,-8.6649,-8.6681,-8.6736,-8.6772,-8.6824,-8.6943,-8.6947,-8.6998,-8.7015,-8.7029,-8.704,-8.7102,-8.7124,-8.6889,-8.6888,-8.6888,0,0,-8.6434,-8.6457,-8.6497,-8.6569,-8.6593,-8.6657,-8.6583,-8.6654,-8.67,-8.6646,-8.6736,-8.6748,-8.6782,-8.6889,-8.6937,-8.6902,-8.7107,-8.7043,-8.7054,-8.7057,-8.7115,-8.7138,-8.7157,-8.6896,-8.6894,-8.6893,0,0,-8.6581,-8.6607,-8.6691,-8.6718,-8.6756,-8.6757,-8.6777,-8.6807,-8.6812,-8.6904,-8.6864,-8.6919,-8.7015,-8.704,-8.7066,-8.7227,-8.7191,-8.7245,-8.7332,-8.7393,-8.7411,-8.7427,-8.7482,-8.7502,-8.7257,-8.7258,-8.7258,0,-8.6654,-8.675,-8.6737,-8.6812,-8.6843,-8.6802,-8.6886,-8.6912,-8.6964,-8.6986,-8.6948,-8.7068,-8.7088,-8.72,-8.724,-8.7263,-8.7284,-8.7239,-8.741,-8.7426,-8.7441,-8.7493,-8.7513,-8.7263,-8.7263,-8.7262,-8.7262,0,-8.6837,-8.6905,-8.6969,-8.7023,-8.7062,-8.7141,-8.7139,-8.7181,-8.7165,-8.7169,-8.7262,-8.7285,-8.734,-8.7367,-8.7351,-8.7477,-8.7454,-8.7414,-8.7342,-8.747,-8.7517,-8.7537,-8.7272,-8.727,-8.7268,-8.7267,0,0,-8.7029,-8.7079,-8.7102,-8.7126,-8.7167,-8.7218,-8.7296,-8.7352,-8.7387,-8.7426,-8.7488,-8.7573,-8.7536,-8.7565,-8.7553,-8.7607,-8.773,-8.756,-8.756,-8.7587,-8.7867,-8.7893,-8.7916,-8.7709,-8.7713,-8.7716,-8.7863,0,-8.7175,-8.7311,-8.7303,-8.7429,-8.749,-8.7453,-8.7521,-8.7552,-8.7559,-8.7611,-8.7618,-8.7677,-8.7627,-8.7644,-8.7696,-8.7704,-8.7785,-8.7694,-8.7763,-8.7766,-8.7751,-8.7942,-8.797,-8.8107,-8.7882,-8.7885,-8.7887,0,-8.7362,-8.741,-8.7543,-8.7576,-8.7601,-8.7662,-8.7712,-8.7764,-8.7799,-8.7801,-8.7836,-8.7814,-8.7891,-8.7823,-8.7926,-8.7864,-8.7893,-8.7902,-8.7907,-8.7908,-8.783,-8.7944,-8.815,-8.8169,-8.7917,-8.7915,-8.7913,0,-8.7484,-8.7582,-8.7674,-8.7697,-8.7738,-8.7781,-8.78,-8.7832,-8.7867,-8.7912,-8.7933,-8.7987,-8.8014,-8.8055,-8.8048,-8.8,-8.8153,-8.8085,-8.8153,-8.8154,-8.8182,-8.818,-8.8391,-8.821,-8.821,-8.8209,-8.8209,0,-8.7645,-8.7726,-8.773,-8.7786,-8.7876,-8.7868,-8.7957,-8.7971,-8.8,-8.8057,-8.803,-8.8083,-8.8073,-8.8127,-8.8122,-8.8207,-8.8221,-8.8222,-8.8219,-8.8222,-8.8221,-8.8236,-8.8224,-8.8215,-8.8213,-8.8212,-8.8211,0,-8.7794,-8.78,-8.7897,-8.7931,-8.7941,-8.8006,-8.8033,-8.8085,-8.8092,-8.8164,-8.8181,-8.819,-8.8252,-8.8251,-8.8321,-8.8318,-8.8421,-8.8409,-8.8409,-8.8404,-8.8472,-8.8464,-8.8696,-8.8725,-8.8529,-8.8531,-8.8533,0,-8.7893,-8.7956,-8.7997,-8.8034,-8.8056,-8.8117,-8.8153,-8.8147,-8.8185,-8.8232,-8.8278,-8.8338,-8.8385,-8.8485,-8.8496,-8.855,-8.8536,-8.8615,-8.8543,-8.8544,-8.8532,-8.8527,-8.8531,-8.8626,-8.8628,-8.863,-8.8632,0,-8.8068,-8.8068,-8.8122,-8.8179,-8.8223,-8.8266,-8.8306,-8.8338,-8.8337,-8.8381,-8.8445,-8.8482,-8.8554,-8.8613,-8.8665,-8.8682,-8.8656,-8.8655,-8.8673,-8.8673,-8.8669,-8.8668,-8.8441,-8.8648,-8.8646,-8.8645,-8.8644,-8.8644,-8.8192,-8.8245,-8.8283,-8.8344,-8.8374,-8.8413,-8.8463,-8.8478,-8.8532,-8.8591,-8.8586,-8.8656,-8.8691,-8.8758,-8.8781,-8.8835,-8.8807,-8.8834,-8.8839,-8.8845,-8.885,-8.8666,-8.8845,-8.8844,-8.8844,-8.8843,-8.8843,0,-8.8361,-8.8385,-8.8442,-8.8499,-8.8547,-8.8524,-8.8567,-8.8608,-8.8671,-8.8707,-8.8755,-8.8828,-8.8885,-8.8904,-8.8959,-8.8998,-8.8988,-8.9013,-8.9007,-8.9011,-8.8874,-8.8851,-8.902,-8.902,-8.902,-8.902,-8.902,-8.902,-8.8454,-8.8543,-8.8549,-8.8652,-8.8675,-8.8745,-8.8771,-8.8806,-8.8835,-8.8918,-8.8967,-8.898,-8.9008,-8.9066,-8.9117,-8.9121,-8.914,-8.917,-8.9168,-8.9039,-8.9021,-8.9003,-8.8981,-8.9175,-8.9175,-8.9299,-8.9301,-8.9301]},{"header":{"parameterUnit":"m.s-1","parameterCategory":1,"la1":30.2991,"la2":30.254,"lo1":-89.0895,"lo2":-89.0444,"dy":0.0017,"dx":0.0017,"nx":28,"ny":28,"refTime":"2024-04-09T21:00:00:Z","depth":0,"parameterNumber":3,"parameterNumberName":"V-component_of_WINDS"},"data":[0,0,0,0,0,0,0,0,0,0,0,0,0,0,0,0,0,0,0,0,0,0,0,0,0,0,0,0,0,0,0,0,0,0,0,0,0,0,0,0,0,0,0,0,0,0,0,0,0,0,0,0,0,0,0,0,0,0,4.8884,4.8885,0,4.8972,4.8973,4.8974,4.8967,4.8965,4.8964,4.8963,4.9048,4.9051,4.9055,0,0,0,0,0,0,0,0,0,0,0,0,0,4.8707,4.871,4.8884,4.8885,4.8886,4.8972,4.8973,4.8974,4.8967,4.8965,4.8964,4.8962,4.9047,4.9051,4.9055,0,0,0,0,0,0,0,0,0,0,0,0,0,4.8788,4.8711,4.8883,4.8893,4.8894,4.8971,4.8973,4.8974,4.8967,4.8965,4.8963,4.8961,4.9046,4.9051,4.9056,4.9128,0,0,4.9072,4.9074,0,0,0,0,0,0,0,0,4.8783,4.8794,4.889,4.8892,4.8894,4.8956,4.8942,4.9026,4.8968,4.8939,4.8963,4.896,4.9019,4.9026,4.9047,4.9132,4.9136,4.9072,4.9076,4.9078,4.9079,0,0,0,0,0,0,0,4.8778,4.879,4.8918,4.8892,4.8894,4.8892,4.8901,4.8958,4.8989,4.8942,4.8941,4.8952,4.9019,4.9042,4.9049,4.9137,4.9072,4.9077,4.908,4.9082,4.9288,4.929,0,0,0,0,0,0,4.877,4.8786,4.8916,4.8921,4.8833,4.8896,4.8907,4.8938,4.8988,4.8994,4.8954,4.8952,4.9034,4.9043,4.9052,4.9141,4.9078,4.9083,4.9086,4.9286,4.9289,4.9291,0,0,0,0,0,0,4.8767,4.8782,4.8912,4.8854,4.887,4.8902,4.8937,4.8941,4.8963,4.8998,4.9003,4.8971,4.9033,4.9044,4.911,4.9144,4.9085,4.909,4.9283,4.9287,4.929,4.9319,0,0,0,0,0,0,4.8762,4.8781,4.8809,4.8854,4.8873,4.8969,4.8939,4.8944,4.8973,4.8971,4.9015,4.902,4.9032,4.9102,4.9115,4.915,4.9094,4.928,4.9285,4.9289,4.9315,4.9323,4.933,0,0,0,0,0,4.8755,4.8812,4.881,4.8826,4.8909,4.8971,4.8982,4.8995,4.8976,4.9004,4.9027,4.9019,4.9138,4.9109,4.9124,4.916,4.9278,4.9283,4.9288,4.9312,4.9322,4.933,0,0,0,0,0,0,4.8767,4.8818,4.8816,4.889,4.8927,4.897,4.9006,4.9005,4.9047,4.9043,4.9056,4.9066,4.9133,4.9153,4.912,4.9234,4.9205,4.9214,4.9218,4.9228,4.9235,4.9228,4.9098,0,0,0,0,0,4.8778,4.8826,4.8867,4.8928,4.8947,4.8974,4.9001,4.9009,4.9047,4.9062,4.9089,4.9125,4.9171,4.92,4.9244,4.9319,4.9329,4.9351,4.9359,4.9365,4.9371,4.9414,4.9425,4.9308,4.9308,4.9308,0,0,4.8801,4.8835,4.8864,4.8931,4.8961,4.9009,4.8986,4.9038,4.9074,4.9069,4.9133,4.9155,4.9196,4.9267,4.93,4.9286,4.9406,4.9371,4.9376,4.9379,4.9421,4.9432,4.9442,4.9312,4.9311,4.9311,0,0,4.8869,4.8899,4.8954,4.8985,4.9031,4.9049,4.9062,4.9107,4.9122,4.9188,4.9186,4.9228,4.9306,4.9337,4.9362,4.9446,4.9441,4.9459,4.9497,4.9539,4.9548,4.9556,4.9587,4.9598,4.9466,4.9466,4.9466,0,4.8891,4.8965,4.8981,4.9035,4.9065,4.9066,4.9122,4.915,4.9208,4.9228,4.9213,4.9313,4.9341,4.942,4.9441,4.9461,4.9477,4.9454,4.9546,4.9554,4.9562,4.9591,4.9603,4.9468,4.9468,4.9468,4.9468,0,4.8992,4.9043,4.9082,4.9141,4.9175,4.9229,4.9253,4.9286,4.9292,4.9312,4.9379,4.9413,4.9465,4.9484,4.9489,4.9565,4.9555,4.9543,4.9514,4.9575,4.9603,4.9614,4.9471,4.9471,4.947,4.9469,0,0,4.9066,4.9136,4.9149,4.9177,4.923,4.927,4.9325,4.9378,4.9406,4.9447,4.9493,4.9561,4.9551,4.958,4.9589,4.9625,4.9691,4.9608,4.961,4.9623,4.9778,4.9787,4.98,4.9688,4.9691,4.9692,4.9775,0,4.9139,4.9238,4.9256,4.9342,4.9391,4.9394,4.9442,4.9479,4.95,4.9544,4.9566,4.9614,4.9597,4.9615,4.9651,4.9675,4.9722,4.9669,4.9731,4.9733,4.9721,4.9814,4.9824,4.99,4.9786,4.9788,4.9789,0,4.9237,4.9283,4.9375,4.9424,4.9445,4.9488,4.954,4.9582,4.9625,4.9637,4.9672,4.9677,4.9734,4.9704,4.9783,4.9747,4.9774,4.979,4.9793,4.9799,4.9764,4.9823,4.9924,4.9936,4.9806,4.9805,4.9803,0,4.9283,4.9368,4.9435,4.9458,4.9517,4.9547,4.9573,4.9614,4.9646,4.9691,4.9712,4.9762,4.9789,4.9827,4.9846,4.9822,4.9925,4.9895,4.9936,4.9936,4.9957,4.9955,5.0064,4.9974,4.9974,4.9974,4.9973,0,4.9363,4.9419,4.9457,4.9498,4.9561,4.9582,4.9644,4.9668,4.9706,4.9751,4.9756,4.9799,4.9821,4.9867,4.9881,4.9946,4.9957,4.9969,4.9972,4.9969,4.9967,4.9986,4.9981,4.9977,4.9976,4.9975,4.9975,0,4.9425,4.9452,4.9526,4.9576,4.9591,4.9635,4.9678,4.9718,4.974,4.9798,4.9812,4.9846,4.99,4.9924,4.9989,4.9999,5.0073,5.0072,5.0059,5.006,5.01,5.0097,5.0225,5.0243,5.0141,5.0142,5.0143,0,4.9474,4.9518,4.9575,4.9607,4.9634,4.9685,4.9719,4.9741,4.9776,4.983,4.9863,4.9919,4.9964,5.0051,5.008,5.0131,5.0132,5.0173,5.0139,5.0135,5.0133,5.0131,5.0135,5.0179,5.018,5.0181,5.0182,0,4.9559,4.9571,4.962,4.9675,4.9716,4.9759,4.9802,4.9827,4.9856,4.9895,4.9952,4.9988,5.0057,5.0112,5.0166,5.0191,5.0191,5.0193,5.0205,5.0201,5.0193,5.0199,5.0077,5.0189,5.0188,5.0188,5.0187,5.0187,4.9616,4.9656,4.9704,4.9759,4.9794,4.9835,4.9875,4.9904,4.9953,5.0012,5.0022,5.0084,5.0127,5.02,5.0228,5.0276,5.0265,5.0282,5.0287,5.0291,5.0294,5.0186,5.0285,5.0285,5.0285,5.0285,5.0285,0,4.9702,4.9733,4.9784,4.9845,4.9889,4.9889,4.9936,4.9973,5.0027,5.0069,5.0115,5.0182,5.0236,5.0271,5.0326,5.0357,5.0359,5.0371,5.0369,5.0375,5.03,5.0284,5.0369,5.0369,5.0369,5.0369,5.0369,5.0369,4.9752,4.982,4.9839,4.9925,4.9956,5.0018,5.0046,5.0083,5.0117,5.0192,5.0238,5.0262,5.0301,5.036,5.0409,5.0418,5.0438,5.0451,5.0459,5.0388,5.038,5.0371,5.0357,5.0455,5.0455,5.053,5.0531,5.0531]}]]